Flag for U.S.A. Weather past 2 weeks in Lexington-Fayette, Kentucky, U.S.A.

Now
61 °F

Partly sunny.


Feels Like: 61 °F
Forecast: 37 / 62 °F
Wind: 7 mph from North

Location: Blue Grass Airport

Current Time: Apr 27, 2015 at 5:16:46 PM

Latest Report: Apr 27, 2015 at 4:54 PM


Visibility: 10 mi

Pressure: 29.95 "Hg

Humidity: 41%

Dew point: 37 °F

Location of Lexington-FayetteLocation

Historic Weather in Lexington-Fayette — Graph

°F

Lexington-Fayette temperature yesterday

Maximum temperature yesterday: 61 °F (at 2:54 PM)
Minimum temperature yesterday: 42 °F (at 6:54 AM)
Average temperature yesterday: 50 °F

Past Weeks' High & Low Weather Summary

 TemperatureHumidityPressure
High77 °F (Apr 13, 2:54 PM)100% (Apr 13, 8:54 PM)30.16 "Hg (Apr 13, 8:54 PM)
Low32 °F (Apr 24, 5:54 AM)23% (Apr 23, 3:54 PM)29.49 "Hg (Apr 19, 7:54 PM)
Average57 °F68%29.93 "Hg
* Reported Apr 12 3:54 PM — Apr 27 3:54 PM, Lexington-Fayette, Weather by CustomWeather, © 2015

Note: Actual official high and low records may vary slightly from our data, if they occured in-between our weather recording intervals... More about our weather records

Advertising

Lexington-Fayette weather history for previous 24 hours

 ConditionsComfort  
Time TempWeatherWind HumidityBarometerVisibility
3:54 PM
Mon, Apr 27
61 °FPartly sunny.3 mph39%29.96 "Hg10 mi
2:54 PM62 °FScattered clouds.5 mph39%29.95 "Hg10 mi
1:54 PM58 °FPartly sunny.6 mph44%29.97 "Hg10 mi
12:54 PM58 °FSunny.6 mph44%30.01 "Hg10 mi
11:54 AM58 °FSunny.9 mph46%30.00 "Hg10 mi
10:54 AM54 °FSunny.No wind51%29.98 "Hg10 mi
9:54 AM51 °FSunny.7 mph59%29.98 "Hg10 mi
8:54 AM46 °FSunny.6 mph73%29.98 "Hg10 mi
7:54 AM40 °FSunny.3 mph86%29.97 "Hg10 mi
6:54 AM38 °FClear.No wind83%29.94 "Hg10 mi
5:54 AM39 °FClear.3 mph82%29.93 "Hg10 mi
4:54 AM40 °FClear.3 mph80%29.91 "Hg10 mi
3:54 AM41 °FClear.3 mph76%29.90 "Hg10 mi
2:54 AM43 °FClear.3 mph71%29.90 "Hg10 mi
1:54 AM44 °FClear.5 mph71%29.91 "Hg10 mi
12:54 AM45 °FClear.6 mph68%29.91 "Hg10 mi
11:54 PM
Sun, Apr 26
46 °FClear.6 mph66%29.90 "Hg10 mi
10:54 PM48 °FClear.8 mph63%29.90 "Hg10 mi
9:54 PM50 °FClear.8 mph59%29.88 "Hg10 mi
8:54 PM52 °FSunny.7 mph53%29.86 "Hg10 mi
7:54 PM56 °FSunny.9 mph44%29.84 "Hg10 mi
6:54 PM59 °FSunny.13 mph41%29.82 "Hg10 mi
5:54 PM61 °FSunny.12 mph42%29.81 "Hg10 mi
Weather by CustomWeather, © 2015

See weather overviewHow to use our weather pages